Date String (YYYY-MM-DD hh:mm:ss) UTC,Instrument flags,Ambient pressure (hPa),Sample flow (lpm),Bypass flow (lpm),Sample temperature (°C),Ambient temperature (°C),ASC tube jacket temperature (°C),LED temperature (°C),Box temperature (°C),Sample RH (%),Span deviation,Mass concentration (μg/m³),Mass concentration (μg/m³),Mass concentration (μg/m³)
DateTimeUTC,F1_M11,P_M11,Q1_M11,Q2_M11,T1_M11,T2_M11,T3_M11,T4_M11,T5_M11,U1_M11,ZSPAN_M11,X2_M11,X0_M11,X1_M11
2023-04-08 06:00:00,,0829.3,5.00,0.00,23.4,21.6,00.0,32.0,24.9,10.3,0000.0,0003.12,0008.12,0001.74
2023-04-08 06:01:00,,0829.3,4.99,0.00,23.4,21.6,00.0,32.0,24.9,10.3,0000.0,0003.15,0008.25,0001.75
2023-04-08 06:02:00,,0829.3,4.99,0.00,23.4,21.6,00.0,31.9,24.9,10.4,0000.0,0003.18,0008.09,0001.76
2023-04-08 06:03:00,,0829.3,5.01,0.00,23.4,21.6,00.0,31.9,24.9,10.4,0000.0,0003.22,0008.06,0001.75
2023-04-08 06:04:00,,0829.3,5.00,0.00,23.4,21.6,00.0,31.9,24.9,10.3,0000.0,0003.26,0007.81,0001.77
2023-04-08 06:05:00,,0829.3,5.00,0.00,23.4,21.5,00.0,31.9,24.8,10.2,0000.0,0003.25,0007.71,0001.78
2023-04-08 06:06:00,,0829.3,5.00,0.00,23.3,21.5,00.0,31.9,24.8,10.2,0000.0,0003.26,0008.30,0001.78
2023-04-08 06:07:00,,0829.4,4.99,0.00,23.3,21.5,00.0,31.9,24.8,10.1,0000.0,0003.22,0008.33,0001.76
2023-04-08 06:08:00,,0829.4,4.99,0.00,23.3,21.4,00.0,31.8,24.8,10.1,0000.0,0003.21,0008.31,0001.76
2023-04-08 06:09:00,,0829.4,5.01,0.00,23.3,21.4,00.0,31.8,24.8,10.3,0000.0,0003.20,0008.56,0001.75
2023-04-08 06:10:00,,0829.4,5.01,0.00,23.3,21.4,00.0,31.8,24.8,10.1,0000.0,0003.24,0008.94,0001.77
2023-04-08 06:11:00,,0829.3,4.99,0.00,23.3,21.4,00.0,31.8,24.8,10.1,0000.0,0003.26,0008.89,0001.79
2023-04-08 06:12:00,,0829.4,4.99,0.00,23.3,21.5,00.0,31.8,24.8,10.2,0000.0,0003.22,0008.56,0001.79
2023-04-08 06:13:00,,0829.4,5.02,0.00,23.3,21.5,00.0,31.8,24.8,10.1,0000.0,0003.19,0008.49,0001.82
2023-04-08 06:14:00,,0829.3,5.00,0.00,23.3,21.6,00.0,31.8,24.9,10.2,0000.0,0003.17,0008.52,0001.82
2023-04-08 06:15:00,,0829.4,4.99,0.00,23.3,21.6,00.0,31.8,24.9,10.3,0000.0,0003.14,0008.52,0001.82
2023-04-08 06:16:00,,0829.3,5.00,0.00,23.4,21.7,00.0,31.8,24.9,10.2,0000.0,0003.14,0008.51,0001.82
2023-04-08 06:17:00,,0829.3,5.01,0.00,23.4,21.7,00.0,31.8,25.0,10.9,0000.0,0003.13,0007.78,0001.82
2023-04-08 06:18:00,,0829.4,5.00,0.00,23.4,21.8,00.0,31.8,25.0,11.6,0000.0,0003.18,0007.69,0001.83
2023-04-08 06:19:00,,0829.4,4.99,0.00,23.4,21.8,00.0,31.8,25.0,10.9,0000.0,0003.21,0007.76,0001.84
2023-04-08 06:20:00,,0829.3,4.99,0.00,23.4,21.8,00.0,31.8,24.9,10.6,0000.0,0003.24,0007.84,0001.85
2023-04-08 06:21:00,,0829.3,5.00,0.00,23.4,21.9,00.0,31.8,24.9,10.3,0000.0,0003.22,0007.85,0001.85
2023-04-08 06:22:00,,0829.3,5.00,0.00,23.4,21.9,00.0,31.8,25.0,10.3,0000.0,0003.20,0007.99,0001.84
2023-04-08 06:23:00,,0829.4,4.99,0.00,23.5,21.9,00.0,31.8,25.0,10.3,0000.0,0003.21,0008.09,0001.84
2023-04-08 06:24:00,,0829.3,5.00,0.00,23.5,21.9,00.0,31.8,25.0,10.4,0000.0,0003.19,0008.25,0001.82
2023-04-08 06:25:00,,0829.4,5.00,0.00,23.4,21.8,00.0,31.8,24.9,10.4,0000.0,0003.18,0008.32,0001.81
2023-04-08 06:26:00,,0829.4,5.00,0.00,23.4,21.8,00.0,31.8,24.9,10.4,0000.0,0003.20,0008.32,0001.82
2023-04-08 06:27:00,,0829.4,4.99,0.00,23.4,21.8,00.0,31.8,24.9,10.4,0000.0,0003.21,0009.04,0001.82
2023-04-08 06:28:00,,0829.4,4.99,0.00,23.4,21.8,00.0,31.8,25.0,10.3,0000.0,0003.21,0009.29,0001.82
2023-04-08 06:29:00,,0829.5,5.00,0.00,23.4,21.8,00.0,31.8,25.0,10.4,0000.0,0003.16,0009.28,0001.84
2023-04-08 06:30:00,,0829.4,5.00,0.00,23.5,21.9,00.0,31.8,25.0,10.4,0000.0,0003.12,0009.25,0001.84
2023-04-08 06:31:00,,0829.5,5.01,0.00,23.5,21.9,00.0,31.8,25.0,10.5,0000.0,0003.04,0009.41,0001.84
2023-04-08 06:32:00,,0829.5,5.00,0.00,23.5,21.9,00.0,31.8,25.1,10.5,0000.0,0002.98,0009.78,0001.84
2023-04-08 06:33:00,,0829.5,5.01,0.00,23.5,22.0,00.0,31.8,25.1,10.4,0000.0,0002.97,0009.50,0001.83
2023-04-08 06:34:00,,0829.5,5.01,0.00,23.5,22.0,00.0,31.8,25.1,10.3,0000.0,0003.01,0009.33,0001.84
2023-04-08 06:35:00,,0829.5,4.99,0.00,23.5,22.1,00.0,31.8,25.1,10.3,0000.0,0003.09,0009.31,0001.86
2023-04-08 06:36:00,,0829.5,4.99,0.00,23.6,22.1,00.0,31.8,25.1,10.3,0000.0,0003.13,0009.16,0001.86
2023-04-08 06:37:00,,0829.4,5.00,0.00,23.6,22.1,00.0,31.8,25.1,10.3,0000.0,0003.15,0009.16,0001.86
2023-04-08 06:38:00,,0829.4,5.00,0.00,23.6,22.1,00.0,31.8,25.1,10.4,0000.0,0003.14,0008.76,0001.86
2023-04-08 06:39:00,,0829.5,5.02,0.00,23.6,22.1,00.0,31.8,25.1,10.3,0000.0,0003.12,0008.17,0001.84
2023-04-08 06:40:00,,0829.4,4.99,0.00,23.5,22.0,00.0,31.8,25.0,10.2,0000.0,0003.11,0008.05,0001.82
2023-04-08 06:41:00,,0829.4,4.99,0.00,23.5,21.9,00.0,31.8,24.9,10.2,0000.0,0003.11,0008.15,0001.80
2023-04-08 06:42:00,,0829.3,5.02,0.00,23.5,21.8,00.0,31.8,24.9,10.2,0000.0,0003.10,0008.18,0001.78
2023-04-08 06:43:00,,0829.3,5.00,0.00,23.5,21.8,00.0,31.8,25.0,10.2,0000.0,0003.07,0007.39,0001.76
2023-04-08 06:44:00,,0829.4,4.99,0.00,23.5,21.8,00.0,31.8,24.9,10.2,0000.0,0003.05,0007.30,0001.73
2023-04-08 06:45:00,,0829.3,4.99,0.00,23.5,21.7,00.0,31.8,24.9,10.2,0000.0,0002.99,0007.28,0001.71
2023-04-08 06:46:00,,0829.3,5.00,0.00,23.4,21.7,00.0,31.8,24.9,10.3,0000.0,0002.99,0007.77,0001.69
2023-04-08 06:47:00,,0829.4,5.01,0.00,23.4,21.7,00.0,31.8,24.9,10.3,0000.0,0002.97,0008.32,0001.70
2023-04-08 06:48:00,,0829.3,5.01,0.00,23.4,21.6,00.0,31.8,24.9,10.3,0000.0,0002.98,0008.69,0001.69
2023-04-08 06:49:00,,0829.3,4.99,0.00,23.3,21.5,00.0,31.8,24.8,10.3,0000.0,0003.03,0008.82,0001.68
2023-04-08 06:50:00,,0829.3,5.00,0.00,23.3,21.5,00.0,31.8,24.8,10.3,0000.0,0003.11,0009.10,0001.68
2023-04-08 06:51:00,,0829.4,5.01,0.00,23.3,21.4,00.0,31.8,24.8,10.3,0000.0,0003.12,0009.12,0001.67
2023-04-08 06:52:00,,0829.4,4.99,0.00,23.3,21.4,00.0,31.7,24.7,10.3,0000.0,0003.16,0009.15,0001.67
2023-04-08 06:53:00,,0829.3,5.00,0.00,23.3,21.4,00.0,31.7,24.7,10.3,0000.0,0003.16,0008.94,0001.67
2023-04-08 06:54:00,,0829.4,5.00,0.00,23.2,21.3,00.0,31.7,24.7,10.4,0000.0,0003.19,0008.89,0001.67
2023-04-08 06:55:00,,0829.4,5.01,0.00,23.2,21.3,00.0,31.7,24.7,10.4,0000.0,0003.21,0008.88,0001.67
2023-04-08 06:56:00,,0829.3,4.99,0.00,23.2,21.4,00.0,31.7,24.7,10.4,0000.0,0003.21,0008.85,0001.67
2023-04-08 06:57:00,,0829.3,4.99,0.00,23.2,21.4,00.0,31.7,24.7,10.4,0000.0,0003.18,0008.25,0001.66
2023-04-08 06:58:00,,0829.3,4.99,0.00,23.2,21.4,00.0,31.6,24.6,10.4,0000.0,0003.13,0007.41,0001.66
2023-04-08 06:59:00,,0829.3,5.00,0.00,23.1,21.4,00.0,31.6,24.6,10.5,0000.0,0003.03,0006.64,0001.64
